St. Cloud, MN

10:39 AM CDT on March 27, 2017 (GMT -0500)
Saint Cloud Regional

Weather History for KSTC - June, 2014

Change the Weather History Date:

Wednesday, June 4, 2014

  Actual Average Record
Temperature  
Mean Temperature 69 °F 62 °F  
Max Temperature 82 °F 74 °F 95 °F (1900)
Min Temperature 55 °F 50 °F 33 °F (1951)
Degree Days  
Heating Degree Days 0 5  
Month to date heating degree days 0 20  
Since 1 June heating degree days 0 20  
Since 1 July heating degree days 9498 8474  
Cooling Degree Days 4 2  
Month to date cooling degree days 16 7  
Year to date cooling degree days 60 32  
Since 1 June cooling degree days 16 7  
Growing Degree Days 18 (Base 50)    
Moisture  
Dew Point 52 °F    
Average Humidity 61    
Maximum Humidity 93    
Minimum Humidity 28    
Precipitation  
Precipitation 0.00 in 0.12 in 2.58 in (1965)
Month to date precipitation 0.66 0.49  
Year to date precipitation 17.01 8.80  
Snow  
Snow 0.00 in 0.00 in 0.00 in ()
Month to date snowfall 0.0 0.0  
Since 1 June snowfall 0.0 0.0  
Since 1 July snowfall 75.5 45.7  
Snow Depth 0.00 in    
Sea Level Pressure  
Sea Level Pressure 29.89 in    
Wind  
Wind Speed 3 mph (ENE)    
Max Wind Speed 9 mph    
Max Gust Speed 15 mph    
Visibility 10 miles    
Events      
T = Trace of Precipitation, MM = Missing Value Source: NWS Daily Summary

Daily Weather History Graph

Daily Weather History Graph

Search for Another Location

Airport or City:

Trip Planner

Search our weather history database for the weather conditions in past years. The results will help you decide how hot, cold, wet, or windy it might be!

Date:

Astronomy

Jun. 04, 2014 Rise Set
Actual Time 5:29 AM CDT 9:00 PM CDT
Civil Twilight 4:52 AM CDT 9:37 PM CDT
Nautical Twilight 4:02 AM CDT 10:27 PM CDT
Astronomical Twilight 2:58 AM CDT 11:31 PM CDT
Moon 12:03 PM CDT (6/4) 12:46 AM CDT (6/4)
Length of Visible Light 16h 45m
Length of Day
15h 31m
Waxing Crescent, 39% of the Moon is Illuminated
Jun 4
Waxing Crescent
Jun 5
First Quarter
Jun 12
Full
Jun 19
Last Quarter
Jun 27
New

Hourly Weather History & Observations

Time (CDT) Temp. Dew Point Humidity Pressure Visibility Wind Dir Wind Speed Gust Speed Precip Events Conditions
12:53 AM 59.0 °F 55.0 °F 87% 29.86 in 10.0 mi Calm Calm - N/A   Clear
1:53 AM 57.9 °F 55.0 °F 90% 29.86 in 10.0 mi Calm Calm - N/A   Clear
2:53 AM 59.0 °F 55.0 °F 87% 29.87 in 10.0 mi Calm Calm - N/A   Clear
3:53 AM 59.0 °F 54.0 °F 83% 29.88 in 10.0 mi Calm Calm - N/A   Clear
4:53 AM 55.9 °F 53.1 °F 90% 29.89 in 10.0 mi Calm Calm - N/A   Clear
5:53 AM 57.0 °F 53.1 °F 87% 29.89 in 8.0 mi Calm Calm - N/A   Clear
6:53 AM 60.1 °F 55.9 °F 86% 29.90 in 9.0 mi Calm Calm - N/A   Clear
7:53 AM 66.9 °F 55.9 °F 68% 29.89 in 10.0 mi North 4.6 mph - N/A   Clear
8:53 AM 72.0 °F 55.0 °F 55% 29.89 in 10.0 mi NE 5.8 mph - N/A   Clear
9:53 AM 73.9 °F 54.0 °F 50% 29.91 in 10.0 mi ENE 6.9 mph - N/A   Clear
10:53 AM 75.0 °F 52.0 °F 44% 29.92 in 10.0 mi East 6.9 mph - N/A   Clear
11:53 AM 75.9 °F 50.0 °F 40% 29.92 in 10.0 mi ENE 5.8 mph - N/A   Scattered Clouds
12:53 PM 78.1 °F 50.0 °F 37% 29.92 in 10.0 mi Variable 5.8 mph - N/A   Mostly Cloudy
1:53 PM 79.0 °F 46.9 °F 32% 29.91 in 10.0 mi Variable 3.5 mph - N/A   Partly Cloudy
2:53 PM 81.0 °F 46.9 °F 30% 29.91 in 10.0 mi NE 6.9 mph - N/A   Clear
3:53 PM 81.0 °F 48.0 °F 31% 29.90 in 10.0 mi ENE 6.9 mph - N/A   Clear
4:53 PM 80.1 °F 45.0 °F 29% 29.89 in 10.0 mi Calm Calm - N/A   Clear
5:53 PM 79.0 °F 48.0 °F 34% 29.88 in 10.0 mi Calm Calm - N/A   Scattered Clouds
6:53 PM 79.0 °F 48.0 °F 34% 29.88 in 10.0 mi ESE 5.8 mph - N/A   Clear
7:53 PM 77.0 °F 51.1 °F 40% 29.87 in 10.0 mi East 3.5 mph - N/A   Clear
8:53 PM 73.0 °F 53.1 °F 49% 29.88 in 10.0 mi ESE 3.5 mph - N/A   Clear
9:53 PM 68.0 °F 57.2 °F 68% 29.90 in 10.0 mi Calm Calm - N/A   Overcast
10:53 PM 66.0 °F 55.9 °F 70% 29.90 in 10.0 mi ENE 3.5 mph - N/A   Clear
11:53 PM 63.0 °F 57.9 °F 84% 29.90 in 10.0 mi Calm Calm - N/A   Clear